Regional Weather Roundup
Issued by NWS

Home | Current Version | Previous Version | Graphics & Text | Print | Product List | Glossary On
Versions: 1 2 3 4 5 6 7 8 9 10 11 12 13 14 15 16 17 18 19 20 21 22 23 24 25 26 27 28 29 30 31 32 33 34 35 36 37 38 39 40 41 42 43 44 45 46 47 48 49 50
410
ASUS43 KMPX 010110
RWRMN
WEATHER ROUNDUP FOR MINNESOTA
NATIONAL WEATHER SERVICE TWIN CITIES/CHANHASSEN MN
800 PM CDT SUN APR 30 2017


NOTE: "FAIR" INDICATES FEW OR NO CLOUDS BELOW 12,000 FEET WITH NO
SIGNIFICANT WEATHER AND/OR OBSTRUCTIONS TO VISIBILITY. N/A MEANS
CURRENT SKY AND/OR WEATHER CONDITIONS ARE NOT AVAILABLE.

MNZ060>063-068>070-010200-
   Twin Cities Metro

CITY           SKY/WX    TMP DP  RH WIND       PRES   REMARKS
TWIN CITIES    LGT RAIN  45  34  65 NE16G32   29.72F
ST PAUL        LGT RAIN  44  36  73 NE14G25   29.72F
CRYSTAL        LGT RAIN  45  31  58 NE22G31   29.71F
BLAINE         CLOUDY    46  34  61 NE18G32   29.72F
LAKEVILLE      CLOUDY    41  37  87 NE12G24   29.71R
EDEN PRAIRIE   CLOUDY    46  34  62 NE22G30   29.70F
SOUTH ST PAUL  CLOUDY    43  37  80 NE13G18   29.70F
LAKE ELMO      LGT RAIN  43  36  75 NE15G24   29.71F
$$
MNZ001>005-007-008-013>017-022>024-027-028-010200-
   Northwest Minnesota

CITY           SKY/WX    TMP DP  RH WIND       PRES   REMARKS
BEMIDJI        CLOUDY    53  22  30 E10       29.88F
HALLOCK        CLEAR     61  23  23 NE10      29.91S
ROSEAU         PTCLDY    54  30  40 NE8       29.93S
WARROAD        PTCLDY    52  28  40 NE8       29.94F
THIEF RVR FALL PTCLDY    56  24  29 E6        29.90F
CROOKSTON      PTCLDY    57  25  28 E5        29.89S
FOSSTON        CLEAR     54  18  24 E8        29.88F
DETROIT LAKES  CLOUDY    52  23  32 E15G22    29.87F
MOORHEAD       PTCLDY    55  21  26 E8        29.86F
PARK RAPIDS    CLOUDY    51  21  30 E7        29.87F
MAHNOMEN       FAIR      51  26  37 E9        29.87S
$$
MNZ006-009>011-018-025>026-010200-
   North Central Minnesota

CITY           SKY/WX    TMP DP  RH WIND       PRES   REMARKS
BAUDETTE       CLEAR     51  23  33 E7        29.92F
FLAG ISLAND    PTCLDY    52  25  35 CALM      29.94S
INTL FALLS     PTCLDY    53  22  29 E10       29.94F
WASKISH        PTCLDY    55  27  33 NE12G17   29.91S
BIG FORK       CLOUDY    52  19  28 E9        29.93R
LONGVILLE      CLOUDY    46  19  34 E9        29.90S
GRAND RAPIDS   CLOUDY    46  20  35 E8        29.93S
CRANE LAKE     CLOUDY    48  18  29 CALM      29.98S
ORR            PTCLDY    48  12  23 E7        29.93S
COOK           PTCLDY    48  21  34 E6        29.95S
WALKER         FAIR      49  28  45 E6        29.89S
$$
MNZ012-019>021-037-010200-
   Northeast Minnesota

CITY           SKY/WX    TMP DP  RH WIND       PRES   REMARKS
DULUTH         CLOUDY    40  19  43 E20G31    29.90F
ELY            CLOUDY    45  18  33 E6        29.95F
HIBBING        CLOUDY    44  22  41 E8        29.93S
EVELETH        CLOUDY    44   8  23 E10G16    29.95F
DULUTH HARBOR  CLOUDY    39  34  81 NE18      29.93F
TWO HARBORS    CLOUDY    45  25  45 NE10G22   29.92F
SILVER BAY     CLOUDY    43  23  45 NE12      29.93F
GRAND MARAIS     N/A     44  23  43 NE9       29.98F
G MARAIS ARPRT CLOUDY    39   9  28 NE10      29.97F
$$
MNZ029>031-032-039>041-046>048-054>057-064-010200-
   West Central Minnesota

CITY           SKY/WX    TMP DP  RH WIND       PRES   REMARKS
FERGUS FALLS   CLOUDY    52  25  35 E15         N/A
WHEATON        CLOUDY    52  23  32 E12       29.85F
MORRIS         CLOUDY    46  34  61 E15       29.81F
ALEXANDRIA     CLOUDY    46  29  51 NE20G25   29.83F
ELBOW LAKE     FAIR      49  27  41 NE12G21   29.84S
WADENA         CLOUDY    46  27  46 E9        29.85F
GLENWOOD       LGT RAIN  41  34  75 NE20      29.81F
APPLETON       DRIZZLE   45  37  76 NE14G20   29.80F
BENSON         RAIN      43  34  70 E13       29.81F
ORTONVILLE     LGT RAIN  45  34  65 NE13G18   29.81F
MADISON        LGT RAIN  45  39  81 NE17      29.79F
WILLMAR        LGT RAIN  39  39 100 NE21G29   29.77F
$$
MNZ033>034-036-042>043-049>051-058-059-010200-
   Central Minnesota

CITY           SKY/WX    TMP DP  RH WIND       PRES   REMARKS
ST CLOUD       CLOUDY    40  35  83 NE12G21   29.79F
SAUK CENTRE    LGT RAIN  40  33  77 E10       29.82F
PAYNESVILLE    LGT RAIN  38  35  89 NE15G21   29.78F
AITKIN         CLOUDY    45  19  36 NE9       29.87F
PINE RIVER     CLOUDY    46  28  49 E10       29.91F
BRAINERD       CLOUDY    44  22  41 NE10G23   29.86F
STAPLES        CLOUDY    46  25  42 E7        29.86F
LONG PRAIRIE   CLOUDY    43  27  52 N15G24    29.83F
LITTLE FALLS   CLOUDY    43  23  45 NE9G18    29.84F
LITCHFIELD     LGT RAIN  41  37  87 NE17G26   29.74F
BUFFALO        LGT RAIN  42  35  75 N14G25    29.73F
MAPLE LAKE     DRIZZLE   42  37  84 NE17G23   29.75F
HUTCHINSON     LGT RAIN  42  38  87 NE17G28   29.72F
$$
MNZ037-044-045-052-053-010200-
   East Central Minnesota

CITY           SKY/WX    TMP DP  RH WIND       PRES   REMARKS
PRINCETON      DRIZZLE   41  36  81 N15G24    29.79F
MORA           LGT RAIN  36  32  87 NE5       29.85F
CAMBRIDGE      CLOUDY    45  30  57 N8G17     29.78F
RUSH CITY      CLOUDY    42  29  58 NE14G22   29.81F
MOOSE LAKE     CLOUDY    41  19  42 E12G20    29.86F
HINCKLEY       LGT RAIN  39  32  75 NE7       29.85F
CLOQUET        CLOUDY    41  10  28 E18G28    29.89F
MCGREGOR       CLOUDY    43  21  42 E14G22    29.89F
$$
MNZ071>073-080-081-089-090-097-098-010200-
   Southwest Minnesota

CITY           SKY/WX    TMP DP  RH WIND       PRES   REMARKS
MONTEVIDEO     LGT RAIN  39  39 100 E18G29    29.77F
GRANITE FALLS  RAIN      42  39  90 N20G26    29.75F
CANBY          LGT RAIN  42  39  91 NE17G24   29.78F
MARSHALL       LGT RAIN  40  38  93 NE20      29.73F FOG
REDWOOD FALLS  LGT RAIN  42  35  76 NE12G25   29.70F
OLIVIA         LGT RAIN  41  36  81 NE21G26   29.71F
PIPESTONE      HVY RAIN  39  34  81 NE18G25   29.68S
WINDOM         DRIZZLE   39  37  93 NE24G31   29.61F
WORTHINGTON    LGT RAIN  38  37  97 NE20G29   29.64R FOG
JACKSON        LGT RAIN  37  37 100 NE21G30   29.61R
TRACY          LGT RAIN  40  38  94 NE21G26   29.69F
SLAYTON        LGT RAIN  37  36  96 N23G31    29.65F
$$
MNZ065>067-074>077-082>085-091>093-010200-
   South Central Minnesota

CITY           SKY/WX    TMP DP  RH WIND       PRES   REMARKS
MANKATO        LGT RAIN  44  37  76 NE20      29.64F
NEW ULM        LGT RAIN  43  36  75 NE17G25   29.64F
ST JAMES       LGT RAIN  41  37  87 N18G25    29.63F
FAIRMONT       LGT RAIN  42  39  89 NE20      29.60F
FARIBAULT      DRIZZLE   43  37  81 N14G21    29.67F
OWATONNA       CLOUDY    45  37  76 NE16G23   29.65F
WASECA         DRIZZLE   43  37  81 NE18G24   29.64F
ALBERT LEA     LGT RAIN  41  39  93 NE18G26   29.60F
$$
MNZ078>079-086>088-094>096-010200-
   Southeast Minnesota

CITY           SKY/WX    TMP DP  RH WIND       PRES   REMARKS
ROCHESTER      CLOUDY    42  39  89 E17G28    29.65F
RED WING       CLOUDY    48  36  61 E14G20    29.66F
STANTON        CLOUDY    45  38  77 NE10      29.69R
DODGE CENTER   CLOUDY    43  37  81 E23       29.64S
WINONA         CLOUDY    43  36  75 E14G24    29.69F
AUSTIN         CLOUDY    43  37  81 E21G29    29.61F
PRESTON        CLOUDY    40  35  82 E23G32    29.63F
$$
ABBREVIATIONS USED IN REMARKS
   TC - TEMPERATURES IN CELSIUS
  WCI - WIND CHILL INDEX
   HX - HEAT INDEX
  VSB - VISIBILITY
$$




USA.gov is the U.S. government's official web portal to all federal, state and local government web resources and services.